Date String (YYYY-MM-DD hh:mm:ss) UTC,Instrument flags,absolute air pressure of the measurement (hPa),sample flow rate (lpm),inlet stack bypass flow (lpm),air temperature of the measurement (°C),ambient temperature measured by the external sensor (°C),aerosol sample conditioner tube jacket temperature (°C),OPC LED temperature (°C),internal box temperature (°C),relative humidity of the measurement (%),span deviation,mass concentration of particles derived from Lorenz-Mie calculation of OPC scattering (μg/m³),mass concentration of particles derived from Lorenz-Mie calculation of OPC scattering (μg/m³),mass concentration of particles derived from Lorenz-Mie calculation of OPC scattering (μg/m³)
DateTimeUTC,F1_M11,P_M11,Q1_M11,Q2_M11,T1_M11,T2_M11,T3_M11,T4_M11,T5_M11,U1_M11,ZSPAN_M11,X2_M11,X0_M11,X1_M11
2024-05-13 09:00:00,SystemResetWarning,0827.2,5.00,000.00,026.1,025.4,000.0,034.3,027.8,019.8,0000.0,0003.17,0006.69,0002.37
2024-05-13 09:01:00,SystemResetWarning,0827.2,5.00,000.00,026.1,025.4,000.0,034.3,027.8,019.8,0000.0,0003.16,0006.77,0002.38
2024-05-13 09:02:00,SystemResetWarning,0827.2,4.99,000.00,026.1,025.4,000.0,034.3,027.8,019.8,0000.0,0003.15,0006.73,0002.39
2024-05-13 09:03:00,SystemResetWarning,0827.3,4.99,000.00,026.1,025.4,000.0,034.3,027.8,019.8,0000.0,0003.12,0006.86,0002.39
2024-05-13 09:04:00,SystemResetWarning,0827.3,4.99,000.00,026.1,025.4,000.0,034.3,027.8,019.8,0000.0,0003.13,0006.51,0002.39
2024-05-13 09:05:00,SystemResetWarning,0827.3,5.00,000.00,026.1,025.4,000.0,034.3,027.8,019.8,0000.0,0003.11,0005.88,0002.40
2024-05-13 09:06:00,SystemResetWarning,0827.3,5.01,000.00,026.1,025.4,000.0,034.3,027.8,019.8,0000.0,0003.13,0006.92,0002.41
2024-05-13 09:07:00,SystemResetWarning,0827.3,5.01,000.00,026.1,025.4,000.0,034.3,027.8,019.8,0000.0,0003.14,0007.14,0002.42
2024-05-13 09:08:00,SystemResetWarning,0827.3,5.00,000.00,026.1,025.4,000.0,034.3,027.8,019.8,0000.0,0003.14,0007.01,0002.42
2024-05-13 09:09:00,SystemResetWarning,0827.3,5.00,000.00,026.1,025.4,000.0,034.3,027.8,019.8,0000.0,0003.13,0006.84,0002.42
2024-05-13 09:10:00,SystemResetWarning,0827.3,5.00,000.00,026.1,025.4,000.0,034.3,027.8,019.8,0000.0,0003.09,0006.70,0002.39
2024-05-13 09:11:00,SystemResetWarning,0827.3,5.01,000.00,026.1,025.4,000.0,034.3,027.8,019.8,0000.0,0003.05,0006.33,0002.39
2024-05-13 09:12:00,SystemResetWarning,0827.3,4.99,000.00,026.1,025.4,000.0,034.3,027.7,019.9,0000.0,0003.09,0006.97,0002.40
2024-05-13 09:13:00,SystemResetWarning,0827.3,5.00,000.00,026.1,025.4,000.0,034.3,027.7,019.8,0000.0,0003.09,0007.07,0002.39
2024-05-13 09:14:00,SystemResetWarning,0827.2,5.00,000.00,026.1,025.4,000.0,034.3,027.8,019.7,0000.0,0003.11,0007.10,0002.39
2024-05-13 09:15:00,SystemResetWarning,0827.3,4.99,000.00,026.1,025.4,000.0,034.3,027.8,019.7,0000.0,0003.11,0006.96,0002.39
2024-05-13 09:16:00,SystemResetWarning,0827.3,5.01,000.00,026.1,025.4,000.0,034.3,027.7,019.8,0000.0,0003.13,0007.02,0002.38
2024-05-13 09:17:00,SystemResetWarning,0827.2,5.01,000.00,026.1,025.4,000.0,034.3,027.8,019.8,0000.0,0003.14,0006.60,0002.39
2024-05-13 09:18:00,SystemResetWarning,0827.3,5.00,000.00,026.1,025.4,000.0,034.3,027.8,019.9,0000.0,0003.13,0005.90,0002.40
2024-05-13 09:19:00,SystemResetWarning,0827.3,4.98,000.00,026.1,025.4,000.0,034.3,027.8,020.2,0000.0,0003.13,0005.83,0002.40
2024-05-13 09:20:00,SystemResetWarning,0827.2,5.01,000.00,026.1,025.4,000.0,034.3,027.8,019.8,0000.0,0003.17,0006.11,0002.40
2024-05-13 09:21:00,SystemResetWarning,0827.3,5.01,000.00,026.1,025.4,000.0,034.3,027.8,019.7,0000.0,0003.21,0006.25,0002.41
2024-05-13 09:22:00,SystemResetWarning,0827.3,5.00,000.00,026.1,025.4,000.0,034.3,027.8,019.7,0000.0,0003.22,0007.14,0002.42
2024-05-13 09:23:00,SystemResetWarning,0827.3,4.99,000.00,026.1,025.4,000.0,034.3,027.8,019.7,0000.0,0003.19,0006.77,0002.41
2024-05-13 09:24:00,SystemResetWarning,0827.3,4.99,000.00,026.1,025.4,000.0,034.3,027.8,019.7,0000.0,0003.19,0006.53,0002.41
2024-05-13 09:25:00,SystemResetWarning,0827.3,5.00,000.00,026.1,025.4,000.0,034.3,027.8,019.6,0000.0,0003.18,0006.30,0002.41
2024-05-13 09:26:00,SystemResetWarning,0827.3,5.01,000.00,026.1,025.4,000.0,034.3,027.8,019.6,0000.0,0003.15,0007.05,0002.41
2024-05-13 09:27:00,SystemResetWarning,0827.3,5.00,000.00,026.1,025.4,000.0,034.3,027.8,019.6,0000.0,0003.12,0007.89,0002.40
2024-05-13 09:28:00,SystemResetWarning,0827.3,5.00,000.00,026.1,025.3,000.0,034.3,027.8,019.7,0000.0,0003.06,0007.73,0002.39
2024-05-13 09:29:00,SystemResetWarning,0827.3,4.99,000.00,026.1,025.3,000.0,034.3,027.8,019.7,0000.0,0003.07,0007.77,0002.39
2024-05-13 09:30:00,SystemResetWarning,0827.3,4.99,000.00,026.1,025.3,000.0,034.3,027.8,019.7,0000.0,0003.08,0007.91,0002.38
2024-05-13 09:31:00,SystemResetWarning,0827.3,5.00,000.00,026.1,025.3,000.0,034.3,027.8,019.7,0000.0,0003.03,0007.81,0002.37
2024-05-13 09:32:00,SystemResetWarning,0827.3,5.01,000.00,026.1,025.3,000.0,034.3,027.7,019.6,0000.0,0003.04,0007.85,0002.39
2024-05-13 09:33:00,SystemResetWarning,0827.4,5.01,000.00,026.1,025.3,000.0,034.3,027.7,019.7,0000.0,0003.09,0007.62,0002.40
2024-05-13 09:34:00,SystemResetWarning,0827.4,4.99,000.00,026.1,025.3,000.0,034.3,027.7,019.6,0000.0,0003.14,0007.50,0002.41
2024-05-13 09:35:00,SystemResetWarning,0827.4,4.99,000.00,026.0,025.3,000.0,034.3,027.7,019.7,0000.0,0003.17,0007.48,0002.41
2024-05-13 09:36:00,SystemResetWarning,0827.4,5.01,000.00,026.0,025.3,000.0,034.3,027.7,019.7,0000.0,0003.23,0007.62,0002.42
2024-05-13 09:37:00,SystemResetWarning,0827.4,5.00,000.00,026.0,025.3,000.0,034.3,027.7,019.7,0000.0,0003.24,0007.02,0002.43
2024-05-13 09:38:00,SystemResetWarning,0827.4,5.01,000.00,026.0,025.3,000.0,034.3,027.7,019.7,0000.0,0003.26,0005.71,0002.44
2024-05-13 09:39:00,SystemResetWarning,0827.3,5.00,000.00,026.0,025.3,000.0,034.3,027.7,019.7,0000.0,0003.30,0007.49,0002.45
2024-05-13 09:40:00,SystemResetWarning,0827.3,4.99,000.00,026.0,025.3,000.0,034.3,027.7,019.7,0000.0,0003.32,0007.59,0002.44
2024-05-13 09:41:00,SystemResetWarning,0827.3,5.00,000.00,026.0,025.3,000.0,034.3,027.7,019.7,0000.0,0003.34,0007.70,0002.44
2024-05-13 09:42:00,SystemResetWarning,0827.3,5.00,000.00,026.0,025.3,000.0,034.3,027.7,019.8,0000.0,0003.33,0008.12,0002.44
2024-05-13 09:43:00,SystemResetWarning,0827.3,5.00,000.00,026.0,025.3,000.0,034.3,027.7,019.8,0000.0,0003.32,0008.09,0002.43
2024-05-13 09:44:00,SystemResetWarning,0827.3,5.00,000.00,026.0,025.3,000.0,034.3,027.7,019.7,0000.0,0003.28,0008.04,0002.42
2024-05-13 09:45:00,SystemResetWarning,0827.3,4.99,000.00,026.0,025.3,000.0,034.3,027.7,019.7,0000.0,0003.27,0008.04,0002.41
2024-05-13 09:46:00,SystemResetWarning,0827.3,5.00,000.00,026.0,025.3,000.0,034.3,027.7,019.7,0000.0,0003.26,0008.04,0002.41
2024-05-13 09:47:00,SystemResetWarning,0827.4,5.00,000.00,026.0,025.3,000.0,034.3,027.7,019.7,0000.0,0003.23,0007.94,0002.42
2024-05-13 09:48:00,SystemResetWarning,0827.3,5.00,000.00,026.0,025.3,000.0,034.3,027.7,019.8,0000.0,0003.22,0007.92,0002.41
2024-05-13 09:49:00,SystemResetWarning,0827.3,5.00,000.00,026.0,025.3,000.0,034.3,027.7,019.8,0000.0,0003.22,0007.91,0002.40
2024-05-13 09:50:00,SystemResetWarning,0827.3,5.00,000.00,026.0,025.3,000.0,034.3,027.7,020.0,0000.0,0003.20,0006.57,0002.40
2024-05-13 09:51:00,SystemResetWarning,0827.3,5.00,000.00,026.0,025.3,000.0,034.3,027.7,019.8,0000.0,0003.20,0006.51,0002.41
2024-05-13 09:52:00,SystemResetWarning,0827.3,5.00,000.00,026.0,025.3,000.0,034.3,027.7,019.7,0000.0,0003.19,0006.22,0002.43
2024-05-13 09:53:00,SystemResetWarning,0827.3,5.00,000.00,026.0,025.3,000.0,034.3,027.7,019.7,0000.0,0003.19,0005.33,0002.44
2024-05-13 09:54:00,SystemResetWarning,0827.3,5.01,000.00,026.0,025.3,000.0,034.3,027.7,019.7,0000.0,0003.20,0005.33,0002.44
2024-05-13 09:55:00,SystemResetWarning,0827.2,5.00,000.00,026.0,025.3,000.0,034.3,027.7,019.6,0000.0,0003.25,0005.28,0002.46
2024-05-13 09:56:00,SystemResetWarning,0827.2,4.99,000.00,026.0,025.3,000.0,034.3,027.7,019.7,0000.0,0003.26,0005.37,0002.47
2024-05-13 09:57:00,SystemResetWarning,0827.2,4.99,000.00,026.0,025.3,000.0,034.3,027.7,019.6,0000.0,0003.25,0005.30,0002.48
2024-05-13 09:58:00,SystemResetWarning,0827.3,5.00,000.00,026.0,025.3,000.0,034.3,027.7,019.7,0000.0,0003.26,0005.36,0002.47
2024-05-13 09:59:00,SystemResetWarning,0827.3,5.01,000.00,026.0,025.3,000.0,034.3,027.7,019.6,0000.0,0003.28,0005.43,0002.48
